TRANSPORTER-15 AC (66692 NORAD) Tracking and Keplerian Element Data

This shows tracking and keplerian element data for the satellite.

Feedback or suggestion? Click here.




ElementValue
Catalog66692
NameTRANSPORTER-15 AC
Epoch Orbit316
Epoch Day353.59734987
Epoch Year2025
RAAN65.2479
Inclination97.4431
Eccentricity0.0001801
Argument of Perigee289.3043
Mean Anonmoly70.7996
Mean Motion15.17362366
Decay Rate4.326E-05
L11 66692U 25276AC 25353.59734987 .00004326 00000+0 22003-3 0 9995
L22 66692 97.4431 65.2479 0001801 289.3043 70.7996 15.17362366 3169



Live tracking and technical data element details for TRANSPORTER-15 AC (NORAD 66692). TRANSPORTER-15 AC can be tracked NOW for your location showing map with azimuth and elevation plus other details from your city location.







IsCatalogInMostPopularTable: catalog: 66692, numindb: 12
Update: records affected: 1



GetName: 66692 TRANSPORTER-15 AC

Hit Count: updated at: Wed, 15 Apr 2026 00:53:58 GMT